Regional Weather Roundup
Issued by NWS Wakefield, VA

Home | Current Version | Previous Version | Text Only | Print | Product List | Glossary On
Versions: 1 2 3 4 5 6 7 8 9 10 11 12 13 14 15 16 17 18 19 20 21 22 23 24 25 26 27 28 29 30 31 32 33 34 35 36 37 38 39 40 41 42 43 44 45 46 47 48 49 50
000
ASUS41 KAKQ 230410
RWRAKQ

REGIONAL WEATHER ROUNDUP
NATIONAL WEATHER SERVICE WAKEFIELD VA
1200 AM EDT TUE SEP 23 2014

Note: "fair" indicates few or no clouds below 12,000 feet with no
significant weather and/or obstructions to visibility. * = Denotes
station may not report precipitation (e.g., rain,snow,etc.),
thunder or fog.

VAZ042-051-052>054-056-230500-
NORTHERN VIRGINIA

CITY           SKY/WX    TMP DP  RH WIND       PRES   REMARKS
WASH NATIONAL  MOCLDY    60  43  53 NW9       30.25R
DULLES         MOCLDY    55  44  66 N6        30.25R
FORT BELVOIR   MOCLDY    58  45  62 NW6       30.25R
QUANTICO       MOCLDY    61  45  55 N16G25    30.24R
FREDERICKSBRG* CLOUDY    60  48  65 N3        30.23R
STAFFORD*      CLOUDY    57  46  68 N3        30.27S
WARRENTON      MOCLDY    57  49  75 N5        30.23S
CULPEPER*      MOCLDY    55  45  67 N8        30.24S
MANASSAS*      MOCLDY    57  46  67 N8        30.25S
LEESBURG*      PTCLDY    54  46  76 CALM      30.26S
WINCHESTER     CLEAR     52  41  66 NW3       30.26F
FRONT ROYAL*   CLOUDY    54  43  66 NW3       30.25F
LURAY*         CLOUDY    52  45  76 CALM      30.26S
$$

VAZ048-049-060>072-079>083-230500-
CENTRAL AND SOUTH CENTRAL VIRGINIA...AND NORTH CENTRAL NORTH CAROLINA

CITY           SKY/WX    TMP DP  RH WIND       PRES   REMARKS
RICHMOND       MOCLDY    63  46  54 N12       30.20R
CHESTERFIELD*  CLOUDY   N/A N/A N/A N8        30.20R
PETERSBURG*    CLOUDY    60  48  66 N6        30.19S
HANOVER        CLOUDY    59  47  64 N5        30.22R
TAPPAHANNOCK*  CLOUDY    60  45  56 CALM      30.22R
CHARLOTTSVILLE CLOUDY    55  47  74 NE3       30.22R
ORANGE*        MOCLDY    57  45  62 N6        30.24S
LOUISA*        CLOUDY    57  46  67 NE6       30.21S
FARMVILLE*     CLOUDY    59  46  63 NE7       30.18S
CREWE*         CLOUDY    59  49  68 CALM      30.20R
FORT PICKETT*  CLOUDY    60  47  61 N9        30.19S
LUNENBURG*     CLOUDY    62  51  67 N5        30.19R
SOUTH HILL*    CLOUDY    63  59  88 N5        30.23R
LAWRENCEVILLE* CLOUDY    61  55  78 CALM      30.18S
ROANOKE RAPIDS CLOUDY    61  55  82 NE5       30.15S
RALEIGH        CLOUDY    64  57  78 NE5       30.16S
$$

VAZ088>098-230500-
SOUTHEAST VIRGINIA

CITY           SKY/WX    TMP DP  RH WIND       PRES   REMARKS
NORFOLK        PTCLDY    68  55  63 NE10      30.15R
VIRGINIA BEACH PTCLDY    66  54  65 N9        30.15R
NORFOLK NAVAL  MOCLDY    71  51  49 N14       30.17R
WEST POINT*    MOCLDY    61  48  62 N5        30.21R
NEWPORT NEWS   PTCLDY    64  52  64 N7        30.17R
LANGLEY AFB    PTCLDY    67  54  61 N12       30.16R
FORT EUSTIS    PTCLDY    65  47  52 N8        30.16R
WILLIAMSBURG*  PTCLDY    61  55  82 N5        30.19R
HR EXEC AP*    PTCLDY    54  50  87 CALM      30.18S
FRANKLIN*      MOCLDY    57  55  94 CALM      30.17R
WAKEFIELD      PTCLDY    59  53  80 NE3       30.18R
$$

VAZ020-022-025-037-045-230500-
WEST CENTRAL AND SOUTHWEST VIRGINIA

CITY           SKY/WX    TMP DP  RH WIND       PRES   REMARKS
STAUNTON*      CLOUDY    53  43  69 NE6       30.26S
HOT SPRINGS VA CLEAR     43  31  63 NW8       30.29R
LYNCHBURG      MOCLDY    59  49  69 N6        30.22R
DANVILLE       MOCLDY    61  51  70 N6        30.18R
SOUTH BOSTON*  NOT AVBL
MARTINSVILLE   MOCLDY    53  53  99 CALM      30.23R
ROANOKE        PTCLDY    57  46  66 N6        30.24S
BLACKSBURG     CLEAR     48  48 100 SW3       30.27R
DUBLIN*        CLEAR     51  47  85 CALM      30.26S
MARION*        CLEAR     46  45  95 CALM      30.30R
HILLSVILLE*    PTCLDY    49  45  87 NW3       30.26R
RICHLANDS*     CLEAR     52  48  86 CALM      30.27S
WISE*          CLEAR     50  48  93 CALM      30.28S
ABINGDON*      CLEAR     52  49  87 E3        30.26R
$$

MDZ021>025-VAZ099-100-230500-
SOUTHERN MARYLAND AND THE DELMARVA PENINSULA

CITY           SKY/WX    TMP DP  RH WIND       PRES   REMARKS
PATUXENT RIVER MOCLDY    61  45  55 N12       30.20S
BAY BRIDGE APT   N/A     61  43  51 N12G18    30.22S
LEONARDTOWN    MOCLDY    59  43  55 N5        30.22S
DOVER          MOCLDY    56  44  63 NW13      30.18R
GEORGETOWN     MOCLDY    57  45  64 VRB3      30.20R
EASTON         CLOUDY    60  47  62 N5        30.24S
CAMBRIDGE      CLOUDY    61  45  55 N8        30.20R
SALISBURY      MOCLDY    60  47  61 N7        30.19R
OCEAN CITY     MOCLDY    59  47  64 N8        30.18S
WALLOPS ISLAND MOCLDY    59  50  72 N8        30.18S
ACCOMACK*      MOCLDY    59  48  67 N6        30.18R
$$

NCZ012>017-030>032-230500-
EASTERN NORTH CAROLINA

CITY           SKY/WX    TMP DP  RH WIND       PRES   REMARKS
ELIZABETH CITY PTCLDY    67  59  75 N9        30.15R
AHOSKIE*       CLOUDY    62  57  83 N3        30.16R
EDENTON*       PTCLDY    63  59  87 NE3       30.14F
CURRITUCK*     PTCLDY    64  59  85 CALM      30.17R
KILL DEVIL HLS PTCLDY    70  58  65 NE5       30.13R
MANTEO         PTCLDY    69  59  71 NE9       30.14R
CAPE HATTERAS  MOCLDY    68  60  75 NE6       30.12R
TARBORO*       CLOUDY    63  60  89 CALM      30.15S
GOLDSBORO      CLOUDY    68  61  79 CALM      30.11F
WASHINGTON     CLOUDY    64  59  83 NE3       30.14S
GREENVILLE     CLOUDY    64  59  82 N3        30.15S
NEW BERN       CLOUDY    69  63  81 NE7       30.12F
WILMINGTON     CLOUDY    68  67  96 CALM      30.09F
$$

VAZ048-230500-
ELSEWHERE

CITY           SKY/WX    TMP DP  RH WIND       PRES   REMARKS
HARRISBURG PA  MOCLDY    57  40  52 NW7       30.23R
BALTIMORE      MOCLDY    55  43  63 NW5       30.22S
ANNAPOLIS      MOCLDY    61  47  59 MISG      30.22S
ANDREWS AFB    MOCLDY    57  44  60 N8        30.23R
WILMINGTON DE  CLEAR     53  44  71 NW10      30.22R
PHILADELPHIA   PTCLDY    58  41  53 NW9       30.21R
WILDWOOD NJ*   MOCLDY    61  43  51 N9G16     30.20R
ATLANTIC CITY  MOCLDY    51  47  86 NW6       30.19R
HENDERSON NC   CLOUDY    60  57  88 CALM      30.16S
GREENSBORO     MOCLDY    61  51  70 N5        30.18S
ROCKY MOUNT    CLOUDY    65  59  81 CALM      30.14F
FAYETTEVILLE   CLOUDY    66  61  84 N7        30.12S
CHARLOTTE      CLOUDY    66  54  65 NE8       30.17R
$$

VAZ100-230500-
MARINE

STATION/POSITION TIME  TEMP    WIND        PRES    WAVE   SWELL
                       AIR SEA DIR/SP/G            HT/PER HT/PER
                 (UTC) (F)     (DEG/KT/KT) (MB)    (FT/S) (FT/S)
44066 TX TWR #4  0400   63 70  330/ 21/ 25 1020.0R   6/ 9   3/ 9
CAPE MAY NJ      0400   63 74   50/  1/  5 1021.7R
LEWES DE         0400   64 71  360/ 19/ 24 1022.0S
15NM E FENWICK I 0400   66 71              1021.0R   4/ 5
OCEAN-CITY-INLET 0400   63 71   10/ 15/ 19 1021.3F
WACHAPREAGUE VA  0400   62 74  350/  5/  8 1021.7R
THOMAS POINT MD  0400   61 72  330/ 13/ 15 1024.1R
GOOSES REEF MD   0400   64     360/ 17/ 21 1023.3R
COVE POINT MD    0400   63     360/ 18/ 23 1022.7R
SOLOMONS ISLAND  0400      75                N/A
BISHOPS HEAD MD  0400   61 69  340/  9/ 10 1021.7F
PINEY POINT MD   0400           20/ 14/ 17   N/A
POTOMAC MD       0400   65      10/ 14/ 19 1021.8S
CAMBRIDGE MD     0400   63 73   10/ 12/ 14 1022.4S
LEWISETTA VA     0400   64 73  360/ 11/ 17 1022.3R
RAPPAHANNOCK LGT 0400           10/ 20/ 23 1022.1R
STINGRAY PT      0400   69      10/ 17/ 21   N/A
YORK RVR RNG VA  0400   69      10/ 17/ 19 1020.7R
YORKTOWN VA      0400   65 76   10/ 12/ 13 1021.3R
JAMESTOWN VA     0400   63      30/  6/  8   N/A
DOMINION TERM VA 0400   67      50/  1/  3 1021.2F
KIPTOPEKE VA     0400      78   30/  5/  9   N/A
CHES BAY BRIDGE  0400   70 75   20/ 15/ 17 1020.5R
CAPE HENRY VA    0400   70      30/ 20/ 22 1019.8R
CHESAPEAKE LGHT  0300   70      10/ 17/ 18 1021.2R
WILLOUBY STN VA  0400   70      20/  9/ 10 1019.8S
S CRANEY ISL VA  0400          360/ 11/ 13 1020.8R
CAPE HENRY BUOY  0400      75                N/A     3/ 8
1ST LANDING BUOY 0400   71      30/ 16/ 19 1020.6R
CAPE CHARLES BUO 0400      74                N/A     3/ 4   2/ 8
OFFSHORE WE BUOY 0400      74                N/A     4/ 4   2/ 8
64NM E OF VA BCH 0400   71 76   10/ 16/ 19 1020.0R   4/ 8   2/ 8
DUCK PIER NC     0400   71 75   20/ 13/ 16 1020.2R
44100 DUCK FRF   0400      74                N/A     3/ 8
44056 DUCK FRF   0400                        N/A     2/ 8
OREGON INLET NC  0400   70 76   20/ 12/ 16 1020.3R
DIAMOND SHLS NC  0400   73      10/ 16/ 19 1019.4R   4/ 7   2/ 8
CAPE LOOKOUT NC  0300   73      20/ 10/ 13 1019.1R
$$


USA.gov is the U.S. government's official web portal to all federal, state and local government web resources and services.